OpenBCM V2.0.2 (Linux)

Packet Radio Mailbox

IZ3LSV

[San Dona' di P. JN]

 Login: GUEST





  
CX2SA  > KEP      07.01.09 05:18l 77 Lines 3131 Bytes #999 (0) @ WW
BID : ARLK002
Read: GUEST
Subj: ARLK002 Keplerian data
Path: IZ3LSV<IR1UAW<IK2QCA<I4UKI<IK6ZDE<VE2GPQ<CX2SA
Sent: 090106/2235Z @:CX2SA.LAV.URY.SA #:64979 [Minas] FBB7.00e $:ARLK002
From: CX2SA@CX2SA.LAV.URY.SA
To  : KEP@ARL


ZCZC SK02
QST de W1AW  
Keplerian Bulletin 2  ARLK002
From ARRL Headquarters
Newington, CT  January 6, 2009
To all radio amateurs 

SB KEP ARL ARLK002
ARLK002 Keplerian data

Special thanks to AMSAT-NA (AMSAT.ORG) for the following Keplerian
data.

Decode 2-line elsets with the following key:
1 AAAAAU 00  0  0 BBBBB.BBBBBBBB  .CCCCCCCC  00000-0  00000-0 0  DDDZ
2 AAAAA EEE.EEEE FFF.FFFF GGGGGGG HHH.HHHH III.IIII JJ.JJJJJJJJKKKKKZ
KEY: A-CATALOGNUM B-EPOCHTIME C-DECAY D-ELSETNUM E-INCLINATION F-RAAN
G-ECCENTRICITY H-ARGPERIGEE I-MNANOM J-MNMOTION K-ORBITNUM Z-CHECKSUM

AO-07
1 07530U 74089B   09005.84232671 -.00000027  00000-0  10000-3 0  3707
2 07530 101.4444 036.3804 0011909 225.9013 134.1079 12.53575056562378
UO-11
1 14781U 84021B   09006.05669341 -.00000207  00000-0 -20348-4 0  8547
2 14781 098.1308 048.8490 0009562 134.4732 225.7206 14.79686253333858
AO-16
1 20439U 90005D   09005.93912817 -.00000001  00000-0  14975-4 0  5039
2 20439 098.2579 341.9175 0010119 296.9458 063.0687 14.31812581989937
AO-27
1 22825U 93061C   09005.03093524  .00000043  00000-0  33584-4 0  1455
2 22825 098.4161 323.7876 0009072 030.0123 330.1601 14.29255669796604
IO-26
1 22826U 93061D   09006.37966599  .00000008  00000-0  19696-4 0  8642
2 22826 098.4090 325.9108 0009456 023.2136 336.9469 14.29506212796892
FO-29
1 24278U 96046B   09006.49170619 -.00000038  00000-0 -43276-5 0  9440
2 24278 098.5769 262.0516 0351222 049.3083 313.8020 13.52941678611880
GO-32
1 25397U 98043D   09005.17245432 -.00000020  00000-0  91835-5 0  7893
2 25397 098.3429 036.1205 0001705 043.4495 316.6805 14.23153391544949
ISS
1 25544U 98067A   09006.52567200  .00012730  00000-0  99439-4 0   130
2 25544 051.6428 054.4350 0007000 165.8125 336.8270 15.72052661580528
NO-44
1 26931U 01043C   09005.69069228  .00000113  00000-0  76312-4 0   679
2 26931 067.0508 122.9739 0005921 257.3696 102.6756 14.29544235379350
SO-50
1 27607U 02058C   09005.47970429 -.00000112  00000-0  50693-5 0  7826
2 27607 064.5567 159.2571 0081950 239.9054 119.3897 14.71405392324735
CO-55
1 27844U 03031E   09005.93028315  .00000004  00000-0  22192-4 0  4817
2 27844 098.7155 017.3762 0009072 250.4701 109.5485 14.20615518286220
AO-51
1 28375U 04025K   09005.02426272  .00000002  00000-0  13426-4 0  2844
2 28375 098.0572 024.0996 0083094 260.9108 098.2670 14.40629490237461
VO-52
1 28650U 05017B   09005.35164802  .00000457  00000-0  64523-4 0  1214
2 28650 097.7658 072.1397 0026737 199.0917 160.9346 14.81541464198538
CO-58
1 28895U 05043F   09005.47398483  .00000248  00000-0  61538-4 0  2033
2 28895 098.0787 260.4580 0018658 134.5917 225.6823 14.59730921169999
HO-59
1 29484U 06041F   08170.27591928  .21901596  31637-5  19690-3 0  4662
2 29484 098.2496 292.5583 0013872 275.6258 084.5236 16.51113477 98738
DO-64
1 32789U 08021G   09006.21378030  .00000674  00000-0  92444-4 0  2581
2 32789 097.9696 071.3507 0015477 194.7049 165.3711 14.81581750 37462

Keplerian bulletins are transmitted twice weekly from W1AW.  The
next scheduled transmission of these data will be Friday, January 9,
2009, at 2330z on Baudot and AMTOR.
NNNN


Read previous mail | Read next mail


 04.05.2026 15:20:45lGo back Go up